• Em Portugal
  • Lista de países
  • Para 7 dias
  • Temperatura da água
  • Mapas de satélite
  • Mapa do tempo
  • Widgets de tempo
  • user-avatar
    Iniciar Sessão

    Previsão horária em Glybochica

    Hoje, 24 Setembro, Segunda-feira

    Tempo Temperatura Precipitação Vento Pressão Humidade
    00:00 +8°C° 0 mm 2 m/s 742 mmHg 91%
    01:00 +8°C° 0 mm 2 m/s 741 mmHg 92%
    02:00 +8°C° 0 mm 2 m/s 740 mmHg 94%
    03:00 +8°C° 0.6 mm 2 m/s 740 mmHg 95%
    04:00 +8°C° 0.6 mm 2 m/s 739 mmHg 96%
    05:00 +8°C° 0.6 mm 2 m/s 739 mmHg 96%
    06:00 +8°C° 1.9 mm 2 m/s 738 mmHg 96%
    07:00 +8°C° 1.9 mm 3 m/s 737 mmHg 96%
    08:00 +8°C° 0 mm 3 m/s 736 mmHg 95%
    09:00 +7°C° 2.6 mm 4 m/s 735 mmHg 95%
    10:00 +7°C° 2.6 mm 4 m/s 735 mmHg 95%
    11:00 +7°C° 2.6 mm 5 m/s 734 mmHg 95%
    12:00 +7°C° 1.8 mm 5 m/s 734 mmHg 94%
    13:00 +7°C° 1.8 mm 6 m/s 734 mmHg 93%
    14:00 +7°C° 0 mm 6 m/s 734 mmHg 92%
    15:00 +7°C° 0.5 mm 6 m/s 735 mmHg 90%
    16:00 +7°C° 0.5 mm 6 m/s 736 mmHg 89%
    17:00 +7°C° 0.5 mm 6 m/s 736 mmHg 88%
    18:00 +7°C° 0.1 mm 5 m/s 737 mmHg 89%
    19:00 +7°C° 0.1 mm 5 m/s 738 mmHg 90%
    20:00 +7°C° 0.1 mm 5 m/s 738 mmHg 91%
    21:00 +7°C° 0 mm 5 m/s 739 mmHg 91%
    22:00 +6°C° 0 mm 5 m/s 740 mmHg 92%
    23:00 +6°C° 0 mm 5 m/s 740 mmHg 92%

    Amanhã, 25 Setembro, Terça-feira

    Tempo Temperatura Precipitação Vento Pressão Humidade
    00:00 +6°C° 0 mm 5 m/s 741 mmHg 92%
    01:00 +5°C° 0 mm 5 m/s 741 mmHg 91%
    02:00 +5°C° 0 mm 5 m/s 742 mmHg 91%
    03:00 +3°C° 0 mm 5 m/s 743 mmHg 92%
    04:00 +3°C° 0 mm 5 m/s 743 mmHg 93%
    05:00 +2°C° 0 mm 5 m/s 744 mmHg 93%
    06:00 +3°C° 0 mm 5 m/s 744 mmHg 90%
    07:00 +3°C° 0 mm 6 m/s 745 mmHg 88%
    08:00 +3°C° 0 mm 6 m/s 746 mmHg 85%
    09:00 +4°C° 0 mm 6 m/s 746 mmHg 79%
    10:00 +5°C° 0 mm 6 m/s 747 mmHg 73%
    11:00 +7°C° 0 mm 6 m/s 747 mmHg 67%
    12:00 +8°C° 0.1 mm 6 m/s 748 mmHg 63%
    13:00 +8°C° 0.1 mm 6 m/s 748 mmHg 60%
    14:00 +9°C° 0.1 mm 7 m/s 749 mmHg 56%
    15:00 +8°C° 0.1 mm 6 m/s 749 mmHg 59%
    16:00 +8°C° 0.1 mm 5 m/s 750 mmHg 62%
    17:00 +7°C° 0.1 mm 4 m/s 750 mmHg 65%
    18:00 +6°C° 0 mm 4 m/s 751 mmHg 67%
    19:00 +5°C° 0 mm 4 m/s 752 mmHg 69%
    20:00 +4°C° 0 mm 4 m/s 753 mmHg 70%
    21:00 +3°C° 0 mm 4 m/s 753 mmHg 70%
    22:00 +3°C° 0 mm 4 m/s 754 mmHg 70%
    23:00 +1°C° 0 mm 4 m/s 754 mmHg 69%

    Depois de amanhã, 26 Setembro, Quarta-feira

    Tempo Temperatura Precipitação Vento Pressão Humidade
    00:00 +1°C° 0 mm 4 m/s 755 mmHg 72%
    01:00 +2°C° 0 mm 3 m/s 755 mmHg 75%
    02:00 +1°C° 0 mm 3 m/s 756 mmHg 78%
    03:00 +1°C° 0 mm 3 m/s 756 mmHg 83%
    04:00 +1°C° 0 mm 3 m/s 757 mmHg 87%
    05:00 +1°C° 0 mm 3 m/s 757 mmHg 92%
    06:00 +2°C° 0 mm 3 m/s 757 mmHg 87%
    07:00 +3°C° 0 mm 4 m/s 757 mmHg 83%
    08:00 +4°C° 0 mm 4 m/s 757 mmHg 78%
    09:00 +6°C° 0 mm 4 m/s 757 mmHg 69%
    10:00 +8°C° 0 mm 4 m/s 757 mmHg 61%
    11:00 +9°C° 0 mm 5 m/s 757 mmHg 52%
    12:00 +10°C° 0 mm 5 m/s 756 mmHg 52%
    13:00 +10°C° 0 mm 6 m/s 756 mmHg 52%
    14:00 +11°C° 0 mm 6 m/s 755 mmHg 53%
    15:00 +10°C° 0 mm 6 m/s 754 mmHg 57%
    16:00 +9°C° 0 mm 6 m/s 754 mmHg 61%
    17:00 +8°C° 0 mm 6 m/s 753 mmHg 64%
    18:00 +8°C° 0.5 mm 6 m/s 752 mmHg 71%
    19:00 +7°C° 0.5 mm 6 m/s 752 mmHg 77%
    20:00 +6°C° 0.5 mm 7 m/s 751 mmHg 84%
    21:00 +6°C° 0.6 mm 7 m/s 750 mmHg 85%
    22:00 +6°C° 0.6 mm 8 m/s 749 mmHg 86%
    23:00 +6°C° 0.6 mm 8 m/s 748 mmHg 87%

    27 Setembro, Quinta-feira

    Tempo Temperatura Precipitação Vento Pressão Humidade
    00:00 +6°C° 0.7 mm 8 m/s 747 mmHg 88%
    01:00 +6°C° 0.7 mm 8 m/s 746 mmHg 88%
    02:00 +6°C° 0.7 mm 8 m/s 745 mmHg 89%
    03:00 +6°C° 0.4 mm 8 m/s 745 mmHg 89%
    04:00 +7°C° 0.4 mm 8 m/s 744 mmHg 89%
    05:00 +7°C° 0.4 mm 8 m/s 744 mmHg 90%
    06:00 +9°C° 0.4 mm 7 m/s 744 mmHg 90%
    07:00 +9°C° 0.4 mm 6 m/s 744 mmHg 91%
    08:00 +10°C° 0.4 mm 6 m/s 744 mmHg 92%
    09:00 +12°C° 0.2 mm 5 m/s 744 mmHg 86%
    10:00 +13°C° 0.2 mm 5 m/s 745 mmHg 81%
    11:00 +14°C° 0.2 mm 5 m/s 745 mmHg 75%
    12:00 +14°C° 0.1 mm 5 m/s 745 mmHg 69%
    13:00 +15°C° 0.1 mm 6 m/s 745 mmHg 64%
    14:00 +15°C° 0.1 mm 6 m/s 746 mmHg 59%
    15:00 +14°C° 0 mm 5 m/s 746 mmHg 63%
    16:00 +14°C° 0 mm 4 m/s 746 mmHg 67%
    17:00 +13°C° 0 mm 3 m/s 746 mmHg 70%
    18:00 +12°C° 0 mm 3 m/s 746 mmHg 75%
    19:00 +10°C° 0 mm 3 m/s 746 mmHg 80%
    20:00 +9°C° 0 mm 3 m/s 747 mmHg 85%
    21:00 +9°C° 0 mm 3 m/s 747 mmHg 87%
    22:00 +9°C° 0 mm 3 m/s 747 mmHg 88%
    23:00 +8°C° 0 mm 3 m/s 746 mmHg 90%

    28 Setembro, Sexta-feira

    Tempo Temperatura Precipitação Vento Pressão Humidade
    00:00 +8°C° 0 mm 4 m/s 746 mmHg 91%
    01:00 +9°C° 0 mm 5 m/s 745 mmHg 92%
    02:00 +9°C° 0 mm 6 m/s 744 mmHg 92%
    03:00 +10°C° 0.1 mm 7 m/s 743 mmHg 89%
    04:00 +11°C° 0.1 mm 8 m/s 742 mmHg 87%
    05:00 +12°C° 0.1 mm 8 m/s 741 mmHg 84%
    06:00 +13°C° 0.1 mm 9 m/s 741 mmHg 83%
    07:00 +13°C° 0.1 mm 9 m/s 740 mmHg 82%
    08:00 +13°C° 0.1 mm 9 m/s 740 mmHg 81%
    09:00 +13°C° 0.5 mm 9 m/s 740 mmHg 79%
    10:00 +13°C° 0.5 mm 9 m/s 741 mmHg 77%
    11:00 +13°C° 0.5 mm 9 m/s 741 mmHg 75%
    12:00 +12°C° 0.1 mm 9 m/s 742 mmHg 73%
    13:00 +11°C° 0.1 mm 8 m/s 743 mmHg 70%
    14:00 +11°C° 0.1 mm 8 m/s 744 mmHg 68%
    15:00 +10°C° 0 mm 6 m/s 745 mmHg 69%
    16:00 +10°C° 0 mm 4 m/s 746 mmHg 70%
    17:00 +9°C° 0 mm 3 m/s 747 mmHg 72%
    18:00 +8°C° 0 mm 2 m/s 747 mmHg 76%
    19:00 +7°C° 0 mm 2 m/s 748 mmHg 80%
    20:00 +6°C° 0 mm 2 m/s 748 mmHg 85%
    21:00 +6°C° 0 mm 2 m/s 748 mmHg 86%
    22:00 +5°C° 0 mm 2 m/s 749 mmHg 87%
    23:00 +5°C° 0 mm 2 m/s 749 mmHg 88%

    29 Setembro, Sábado

    Tempo Temperatura Precipitação Vento Pressão Humidade
    00:00 +5°C° 0 mm 2 m/s 749 mmHg 87%
    01:00 +5°C° 0 mm 2 m/s 749 mmHg 87%
    02:00 +5°C° 0 mm 2 m/s 749 mmHg 87%
    03:00 +5°C° 0 mm 2 m/s 749 mmHg 86%
    04:00 +5°C° 0 mm 2 m/s 749 mmHg 85%
    05:00 +5°C° 0 mm 2 m/s 749 mmHg 85%
    06:00 +6°C° 0 mm 2 m/s 749 mmHg 84%
    07:00 +6°C° 0 mm 2 m/s 750 mmHg 84%
    08:00 +7°C° 0 mm 2 m/s 750 mmHg 83%
    09:00 +7°C° 0 mm 2 m/s 751 mmHg 80%
    10:00 +8°C° 0 mm 2 m/s 751 mmHg 76%
    11:00 +8°C° 0 mm 2 m/s 751 mmHg 73%
    12:00 +9°C° 0.1 mm 2 m/s 751 mmHg 68%
    13:00 +9°C° 0.1 mm 3 m/s 751 mmHg 64%
    14:00 +10°C° 0.1 mm 3 m/s 752 mmHg 59%
    15:00 +9°C° 0 mm 2 m/s 752 mmHg 60%
    16:00 +9°C° 0 mm 2 m/s 752 mmHg 62%
    17:00 +8°C° 0 mm 2 m/s 752 mmHg 64%
    18:00 +8°C° 0 mm 1 m/s 753 mmHg 66%
    19:00 +7°C° 0 mm 1 m/s 753 mmHg 68%
    20:00 +5°C° 0 mm 1 m/s 754 mmHg 71%
    21:00 +5°C° 0 mm 1 m/s 754 mmHg 71%
    22:00 +5°C° 0 mm 1 m/s 754 mmHg 72%
    23:00 +3°C° 0 mm 0 m/s 754 mmHg 73%
    Mostrar mais